Weather Roundup
Issued by NWS

Home | Current Version | Previous Version | Graphics & Text | Print | Product List | Glossary Off
Versions: 1 2 3 4 5 6 7 8 9 10 11 12 13 14 15 16 17 18 19 20 21 22 23 24 25 26 27 28 29 30 31 32 33 34 35 36 37 38 39 40 41 42 43 44 45 46 47 48 49 50

000
NZUS93 KARX 210610
HRRWXR

CURRENT HOURLY OBSERVATIONS ACROSS
MUCH OF THE UPPER MISSISSIPPI VALLEY
NATIONAL WEATHER SERVICE LA CROSSE WI
100 AM CDT SUN SEP 21 2014


...SOUTHEAST MINNESOTA...


CITY           SKY/WX    TMP DP  RH WIND       PRES   REMARKS
ROCHESTER      CLOUDY    55  52  89 W10G17    29.87F
ROCHESTER/MAYO CLOUDY    58  51  78 W14G26    29.85F
WINONA         CLEAR     59  50  72 W17       29.81F
AUSTIN         CLOUDY    55  54  94 W8        29.89S
ALBERT LEA     CLEAR     55  55 100 W6        29.91S
DODGE CENTER   PTCLDY    55  54  94 W14       29.87F
PRESTON        MOCLDY    54  54 100 W12       29.87S
OWATONNA       PTCLDY    55  54  94 W7        29.89F
FARIBAULT      CLEAR     59  52  77 W10       29.89S
$$

...ELSEWHERE IN MINNESOTA...


CITY           SKY/WX    TMP DP  RH WIND       PRES   REMARKS
MINNEAPOLIS    PTCLDY    57  50  77 W12       29.85S
INTNL FALLS    LGT RAIN  50  48  93 NW9G21    29.88R
DULUTH         LGT RAIN  53  50  89 NW12      29.76R
RED WING       CLEAR     57  52  82 W10       29.80F
REDWOOD FALLS  CLEAR     56  48  74 NW10      29.94R
MANKATO        CLEAR     55  48  76 NW8       29.91S
WORTHINGTON    CLEAR     55  45  67 W14       30.01S
FAIRMONT       CLEAR     59  45  58 W15       29.95S
$$

...SOUTHWEST WISCONSIN...


CITY           SKY/WX    TMP DP  RH WIND       PRES   REMARKS
LA CROSSE      CLEAR     59  51  75 W10       29.80F
PRAIRIE DU CHI CLEAR     57  53  84 W5        29.85S
BOSCOBEL       CLEAR     60  53  77 VRB6      29.83R
LONE ROCK      CLEAR     63  53  70 NW14G21   29.80R
PLATTEVILLE    PTCLDY    58  55  90 W13G18    29.84S
FORT MC COY    CLEAR     55  50  85 W6        29.79F
CAMP DOUGLAS   CLEAR     55  55 100 W10       29.76F
VIROQUA        FAIR      55  54  99 W8        29.81F
WIS DELLS      CLEAR     57  52  84 W13G21    29.76S
$$

...ELSEWHERE IN WISCONSIN...


CITY           SKY/WX    TMP DP  RH WIND       PRES   REMARKS
MILWAUKEE      MOCLDY    63  60  90 W8        29.68F
MADISON        PTCLDY    61  56  83 NW14G22   29.76R
GREEN BAY      CLOUDY    57  55  93 W7        29.67F
EAU CLAIRE     MOCLDY    56  49  77 W10       29.75F
BLACK RVR FLS  FAIR      55  53  94 SW8       29.76F
MEDFORD        DRIZZLE   54  52  94 W13G21    29.70F
WAUSAU         CLOUDY    55  53  93 W9        29.69S
WIS RAPIDS     MOCLDY    56  53  90 W13       29.74F
MARSHFIELD     MOCLDY    56  52  86 W15       29.72F
RICE LAKE      RAIN      54  50  87 W14G20    29.76S
$$

...NORTHEAST IOWA...


CITY           SKY/WX    TMP DP  RH WIND       PRES   REMARKS
WATERLOO       CLEAR     55  53  93 W7        29.92S
DUBUQUE        PTCLDY    57  53  86 NW17G23   29.87R
DECORAH        CLEAR     54  52  94 VRB5      29.86F
MASON CITY     CLEAR     55  54  96 W12       29.94F
CHARLES CITY   CLEAR     55  54  94 W10       29.91F
OELWEIN        CLEAR     55  54  94 W8        29.91F
$$

...ELSEWHERE IN IOWA...


CITY           SKY/WX    TMP DP  RH WIND       PRES   REMARKS
DES MOINES     CLEAR     62  51  67 N6        30.00S
IOWA CITY        N/A     62  56  80 NW14      29.93R
FORT DODGE     CLEAR     54  50  87 W3        29.99F
MARSHALLTOWN   CLEAR     55  53  93 W6        29.96S
CEDAR RAPIDS   CLEAR     59  54  83 NW13      29.92R
$$

...NORTHERN ILLINOIS...


CITY           SKY/WX    TMP DP  RH WIND       PRES   REMARKS
CHICAGO-OHARE  TSTM      68  64  87 W22G39    29.73R FOG
DUPAGE           N/A    N/A N/A N/A MISG      29.73F
CHICAGO-MIDWAY TSTM      67  63  87 W14G31    29.74S
MOLINE         CLOUDY    66  57  72 NW18G26   29.87R
ROCKFORD       CLOUDY    65  61  87 W12       29.77R
STERLING       CLOUDY    64  59  82 NW16      29.81R
PEORIA         PTCLDY    72  66  81 W8        29.84R
$$

NOTE: "FAIR" INDICATES FEW OR NO CLOUDS BELOW 12,000 FEET WITH NO
SIGNIFICANT WEATHER AND/OR OBSTRUCTIONS TO VISIBILITY. WIND
SPEEDS ARE IN MILES-PER-HOUR.



USA.gov is the U.S. government's official web portal to all federal, state and local government web resources and services.